Time,TemperatureF,DewpointF,PressureIn,WindDirection,WindDirectionDegrees,WindSpeedMPH,WindSpeedGustMPH,Humidity,HourlyPrecipIn,Conditions,Clouds,dailyrainin,SoftwareType,DateUTC
2013-01-11 03:20:00,51.9,48.7,29.88,WSW,248,3.0,8.0,89,0.00,CLR,,0.05,WeatherDisplay:10.37,2013-01-11 02:20:00,
2013-01-11 03:30:00,51.6,48.7,29.88,WSW,256,5.0,8.0,90,0.00,CLR,,0.05,WeatherDisplay:10.37,2013-01-11 02:30:00,
2013-01-11 03:40:00,51.5,48.7,29.88,WSW,241,2.0,6.0,90,0.00,CLR,,0.05,WeatherDisplay:10.37,2013-01-11 02:40:00,
2013-01-11 03:50:00,51.3,48.2,29.88,WSW,244,2.0,9.0,89,0.00,CLR,,0.05,WeatherDisplay:10.37,2013-01-11 02:50:00,
2013-01-11 04:00:00,51.1,47.7,29.88,WSW,247,5.0,8.0,88,0.00,CLR,,0.05,WeatherDisplay:10.37,2013-01-11 03:00:00,
2013-01-11 04:10:00,51.0,47.6,29.88,WSW,240,2.0,8.0,88,0.00,CLR,,0.05,WeatherDisplay:10.37,2013-01-11 03:10:00,
2013-01-11 04:20:00,51.0,47.6,29.87,WSW,250,3.0,9.0,88,0.00,CLR,,0.05,WeatherDisplay:10.37,2013-01-11 03:20:00,
2013-01-11 04:30:00,51.2,47.8,29.88,WSW,243,3.0,8.0,88,0.00,CLR,,0.05,WeatherDisplay:10.37,2013-01-11 03:30:00,
2013-01-11 04:40:00,51.2,47.8,29.88,WSW,244,3.0,7.0,88,0.00,CLR,,0.05,WeatherDisplay:10.37,2013-01-11 03:40:00,
2013-01-11 04:50:00,51.2,47.8,29.87,WSW,244,3.0,5.0,88,0.00,CLR,,0.05,WeatherDisplay:10.37,2013-01-11 03:50:00,
2013-01-11 05:00:00,51.2,47.8,29.87,WSW,241,1.0,6.0,88,0.00,CLR,,0.05,WeatherDisplay:10.37,2013-01-11 04:00:00,
2013-01-11 05:10:00,51.2,47.5,29.87,WSW,251,2.0,7.0,87,0.00,CLR,,0.05,WeatherDisplay:10.37,2013-01-11 04:10:00,
2013-01-11 05:20:00,51.2,47.2,29.87,WSW,244,1.0,5.0,86,0.00,CLR,,0.05,WeatherDisplay:10.37,2013-01-11 04:20:00,
2013-01-11 05:30:00,51.2,46.8,29.87,SW,224,1.0,6.0,85,0.00,CLR,,0.05,WeatherDisplay:10.37,2013-01-11 04:30:00,
2013-01-11 05:40:00,51.4,47.0,29.87,WSW,244,1.0,7.0,85,0.00,CLR,,0.05,WeatherDisplay:10.37,2013-01-11 04:40:00,
2013-01-11 05:50:00,51.3,47.0,29.88,WSW,249,2.0,5.0,85,0.00,CLR,,0.05,WeatherDisplay:10.37,2013-01-11 04:50:00,
2013-01-11 06:10:00,51.4,47.4,29.88,WSW,255,2.0,6.0,86,0.00,CLR,,0.05,WeatherDisplay:10.37,2013-01-11 05:10:00,
2013-01-11 06:20:00,51.3,47.3,29.88,WSW,238,2.0,5.0,86,0.00,CLR,,0.05,WeatherDisplay:10.37,2013-01-11 05:20:00,
2013-01-11 06:30:00,51.2,47.5,29.88,SW,229,1.0,5.0,87,0.00,CLR,,0.05,WeatherDisplay:10.37,2013-01-11 05:30:00,
2013-01-11 06:40:00,51.2,47.5,29.88,West,263,2.0,6.0,87,0.00,CLR,,0.05,WeatherDisplay:10.37,2013-01-11 05:40:00,
2013-01-11 06:50:00,51.2,47.2,29.88,WSW,240,2.0,6.0,86,0.00,CLR,,0.05,WeatherDisplay:10.37,2013-01-11 05:50:00,
2013-01-11 07:00:00,51.3,46.6,29.88,SW,232,3.0,5.0,84,0.00,CLR,,0.05,WeatherDisplay:10.37,2013-01-11 06:00:00,
2013-01-11 07:10:00,51.5,46.8,29.88,WSW,240,0.0,4.0,84,0.00,CLR,,0.05,WeatherDisplay:10.37,2013-01-11 06:10:00,
2013-01-11 07:20:00,51.4,46.7,29.88,South,184,1.0,3.0,84,0.00,CLR,,0.05,WeatherDisplay:10.37,2013-01-11 06:20:00,
2013-01-11 07:30:00,51.4,46.7,29.89,WSW,250,0.0,4.0,84,0.00,CLR,,0.05,WeatherDisplay:10.37,2013-01-11 06:30:00,
2013-01-11 07:40:00,51.5,46.8,29.88,SW,229,0.0,7.0,84,0.00,CLR,,0.05,WeatherDisplay:10.37,2013-01-11 06:40:00,
2013-01-11 07:50:00,51.7,47.3,29.89,SW,231,0.0,5.0,85,0.00,CLR,,0.05,WeatherDisplay:10.37,2013-01-11 06:50:00,
2013-01-11 08:00:00,51.8,47.5,29.89,SW,216,0.0,4.0,85,0.00,CLR,,0.05,WeatherDisplay:10.37,2013-01-11 07:00:00,
2013-01-11 08:10:00,51.9,47.5,29.90,SW,219,1.0,4.0,85,0.00,CLR,,0.05,WeatherDisplay:10.37,2013-01-11 07:10:00,
2013-01-11 08:20:00,52.0,47.6,29.90,SW,229,1.0,5.0,85,0.00,CLR,,0.05,WeatherDisplay:10.37,2013-01-11 07:20:00,
2013-01-11 08:30:00,52.1,47.8,29.90,WSW,244,0.0,5.0,85,0.00,CLR,,0.05,WeatherDisplay:10.37,2013-01-11 07:30:00,
2013-01-11 08:40:00,52.3,47.6,29.90,WSW,243,2.0,7.0,84,0.00,CLR,,0.05,WeatherDisplay:10.37,2013-01-11 07:40:00,
2013-01-11 08:50:00,52.5,47.5,29.91,WSW,256,5.0,9.0,83,0.00,CLR,,0.05,WeatherDisplay:10.37,2013-01-11 07:50:00,
2013-01-11 09:00:00,52.6,47.6,29.90,SW,229,1.0,9.0,83,0.00,CLR,,0.05,WeatherDisplay:10.37,2013-01-11 08:00:00,
2013-01-11 09:10:00,52.7,47.7,29.91,West,263,1.0,9.0,83,0.00,CLR,,0.05,WeatherDisplay:10.37,2013-01-11 08:10:00,
2013-01-11 09:20:00,53.0,47.9,29.91,WSW,237,0.0,6.0,83,0.00,CLR,,0.05,WeatherDisplay:10.37,2013-01-11 08:20:00,
2013-01-11 09:30:00,53.2,48.2,29.91,SW,226,1.0,4.0,83,0.00,CLR,,0.05,WeatherDisplay:10.37,2013-01-11 08:30:00,
2013-01-11 09:40:00,53.1,47.7,29.91,West,266,3.0,6.0,82,0.00,CLR,,0.05,WeatherDisplay:10.37,2013-01-11 08:40:00,
2013-01-11 09:50:00,53.3,47.9,29.90,West,278,1.0,4.0,82,0.00,CLR,,0.05,WeatherDisplay:10.37,2013-01-11 08:50:00,
2013-01-11 10:00:00,53.6,48.2,29.90,SW,217,0.0,1.0,82,0.00,CLR,,0.05,WeatherDisplay:10.37,2013-01-11 09:00:00,
2013-01-11 10:10:00,54.2,48.8,29.90,SW,214,0.0,2.0,82,0.00,CLR,,0.05,WeatherDisplay:10.37,2013-01-11 09:10:00,
2013-01-11 10:20:00,54.4,49.4,29.90,ENE,67,0.0,3.0,83,0.00,CLR,,0.05,WeatherDisplay:10.37,2013-01-11 09:20:00,
2013-01-11 10:30:00,54.6,49.2,29.90,NE,48,0.0,3.0,82,0.00,CLR,,0.05,WeatherDisplay:10.37,2013-01-11 09:30:00,
2013-01-11 10:40:00,54.6,48.9,29.89,East,96,1.0,3.0,81,0.00,CLR,,0.05,WeatherDisplay:10.37,2013-01-11 09:40:00,
2013-01-11 10:50:00,54.5,49.2,29.89,East,93,1.0,7.0,82,0.00,CLR,,0.05,WeatherDisplay:10.37,2013-01-11 09:50:00,
2013-01-11 11:00:00,55.3,49.6,29.88,SSW,196,0.0,3.0,81,0.00,CLR,,0.05,WeatherDisplay:10.37,2013-01-11 10:00:00,
2013-01-11 11:10:00,56.1,49.6,29.88,SSE,165,1.0,3.0,79,0.00,CLR,,0.05,WeatherDisplay:10.37,2013-01-11 10:10:00,
2013-01-11 11:20:00,56.0,49.2,29.88,SSE,159,1.0,4.0,78,0.00,CLR,,0.05,WeatherDisplay:10.37,2013-01-11 10:20:00,
2013-01-11 11:30:00,55.5,49.1,29.87,SSE,157,2.0,6.0,79,0.01,RA,,0.05,WeatherDisplay:10.37,2013-01-11 10:30:00,
2013-01-11 11:40:00,54.7,49.3,29.87,SE,136,1.0,6.0,82,0.00,CLR,,0.05,WeatherDisplay:10.37,2013-01-11 10:40:00,
2013-01-11 11:50:00,54.4,49.6,29.86,SE,138,2.0,8.0,84,0.00,CLR,,0.05,WeatherDisplay:10.37,2013-01-11 10:50:00,
2013-01-11 12:00:00,54.4,49.7,29.86,SE,136,2.0,6.0,84,0.00,CLR,,0.05,WeatherDisplay:10.37,2013-01-11 11:00:00,
2013-01-11 12:10:00,54.4,49.3,29.85,SE,135,1.0,4.0,83,0.00,CLR,,0.05,WeatherDisplay:10.37,2013-01-11 11:10:00,
2013-01-11 12:20:00,54.5,48.8,29.85,SSE,157,1.0,5.0,81,0.00,CLR,,0.05,WeatherDisplay:10.37,2013-01-11 11:20:00,
2013-01-11 12:30:00,54.4,48.7,29.84,SSE,164,0.0,7.0,81,0.00,CLR,,0.05,WeatherDisplay:10.37,2013-01-11 11:30:00,
2013-01-11 12:40:00,54.3,48.6,29.84,South,169,1.0,7.0,81,0.00,CLR,,0.05,WeatherDisplay:10.37,2013-01-11 11:40:00,
2013-01-11 12:50:00,54.1,48.7,29.84,South,181,2.0,6.0,82,0.00,CLR,,0.05,WeatherDisplay:10.37,2013-01-11 11:50:00,
2013-01-11 13:00:00,54.2,49.1,29.84,SW,214,1.0,7.0,83,0.00,CLR,,0.05,WeatherDisplay:10.37,2013-01-11 12:00:00,
2013-01-11 13:10:00,54.8,49.7,29.83,South,184,1.0,5.0,83,0.00,CLR,,0.05,WeatherDisplay:10.37,2013-01-11 12:10:00,
2013-01-11 13:20:00,55.7,49.9,29.83,South,187,0.0,4.0,81,0.00,CLR,,0.05,WeatherDisplay:10.37,2013-01-11 12:20:00,
2013-01-11 13:30:00,55.9,49.5,29.83,SSE,168,5.0,10.0,79,0.00,CLR,,0.05,WeatherDisplay:10.37,2013-01-11 12:30:00,
2013-01-11 13:40:00,55.6,49.5,29.82,SSE,158,0.0,7.0,80,0.00,CLR,,0.05,WeatherDisplay:10.37,2013-01-11 12:40:00,
2013-01-11 13:50:00,55.4,49.7,29.82,SSW,194,1.0,6.0,81,0.00,CLR,,0.05,WeatherDisplay:10.37,2013-01-11 12:50:00,
2013-01-11 14:00:00,54.7,50.3,29.82,SW,215,3.0,8.0,85,0.05,RA,,0.10,WeatherDisplay:10.37,2013-01-11 13:00:00,
2013-01-11 14:10:00,53.7,49.3,29.82,WSW,241,8.0,21.0,85,0.00,CLR,,0.10,WeatherDisplay:10.37,2013-01-11 13:10:00,
2013-01-11 14:20:00,53.9,47.5,29.82,SW,233,8.0,18.0,79,0.00,CLR,,0.10,WeatherDisplay:10.37,2013-01-11 13:20:00,
2013-01-11 14:30:00,54.2,47.1,29.82,WSW,249,9.0,20.0,77,0.00,CLR,,0.10,WeatherDisplay:10.37,2013-01-11 13:30:00,
2013-01-11 14:40:00,54.7,47.3,29.82,SW,234,9.0,16.0,76,0.00,CLR,,0.10,WeatherDisplay:10.37,2013-01-11 13:40:00,
2013-01-11 14:50:00,54.8,46.3,29.82,SW,229,9.0,17.0,73,0.00,CLR,,0.10,WeatherDisplay:10.37,2013-01-11 13:50:00,
2013-01-11 15:00:00,54.6,45.0,29.82,WSW,242,2.0,14.0,70,0.00,CLR,,0.10,WeatherDisplay:10.37,2013-01-11 14:00:00,
2013-01-11 15:10:00,54.7,44.7,29.82,WSW,245,8.0,12.0,69,0.00,CLR,,0.10,WeatherDisplay:10.37,2013-01-11 14:10:00,
2013-01-11 15:20:00,54.9,45.3,29.82,WSW,242,5.0,13.0,70,0.00,CLR,,0.10,WeatherDisplay:10.37,2013-01-11 14:20:00,
2013-01-11 15:30:00,54.8,45.2,29.82,WSW,242,5.0,16.0,70,0.00,CLR,,0.10,WeatherDisplay:10.37,2013-01-11 14:30:00,
2013-01-11 15:40:00,54.7,44.7,29.82,WSW,238,7.0,14.0,69,0.00,CLR,,0.10,WeatherDisplay:10.37,2013-01-11 14:40:00,
2013-01-11 15:50:00,54.1,42.2,29.83,WSW,247,8.0,22.0,64,0.00,CLR,,0.10,WeatherDisplay:10.37,2013-01-11 14:50:00,
2013-01-11 16:00:00,53.6,40.5,29.82,WSW,249,9.0,20.0,61,0.00,CLR,,0.10,WeatherDisplay:10.37,2013-01-11 15:00:00,
2013-01-11 16:10:00,53.0,41.6,29.82,WSW,243,7.0,21.0,65,0.00,CLR,,0.10,WeatherDisplay:10.37,2013-01-11 15:10:00,
2013-01-11 16:20:00,53.2,41.3,29.82,WSW,253,6.0,17.0,64,0.00,CLR,,0.10,WeatherDisplay:10.37,2013-01-11 15:20:00,
2013-01-11 16:30:00,53.2,41.7,29.82,WSW,246,5.0,15.0,65,0.00,CLR,,0.10,WeatherDisplay:10.37,2013-01-11 15:30:00,
2013-01-11 16:40:00,53.3,40.6,29.82,WSW,238,10.0,20.0,62,0.00,CLR,,0.10,WeatherDisplay:10.37,2013-01-11 15:40:00,
2013-01-11 16:50:00,53.1,39.5,29.82,WSW,247,12.0,24.0,60,0.00,CLR,,0.10,WeatherDisplay:10.37,2013-01-11 15:50:00,
2013-01-11 17:00:00,52.4,39.7,29.82,West,271,8.0,24.0,62,0.00,CLR,,0.10,WeatherDisplay:10.37,2013-01-11 16:00:00,
2013-01-11 17:10:00,52.9,41.0,29.81,WSW,250,8.0,18.0,64,0.00,CLR,,0.10,WeatherDisplay:10.37,2013-01-11 16:10:00,
2013-01-11 17:20:00,52.9,41.1,29.81,WSW,245,6.0,18.0,64,0.00,CLR,,0.10,WeatherDisplay:10.37,2013-01-11 16:20:00,
2013-01-11 17:30:00,52.8,40.9,29.81,SW,227,6.0,18.0,64,0.00,CLR,,0.10,WeatherDisplay:10.37,2013-01-11 16:30:00,
2013-01-11 17:40:00,52.4,41.3,29.81,SW,225,7.0,15.0,66,0.00,CLR,,0.10,WeatherDisplay:10.37,2013-01-11 16:40:00,
2013-01-11 17:50:00,52.6,41.2,29.81,WSW,244,7.0,18.0,65,0.00,CLR,,0.10,WeatherDisplay:10.37,2013-01-11 16:50:00,
2013-01-11 18:00:00,52.3,42.5,29.81,WSW,253,12.0,21.0,69,0.00,CLR,,0.10,WeatherDisplay:10.37,2013-01-11 17:00:00,
2013-01-11 18:10:00,51.2,43.2,29.81,West,260,9.0,25.0,74,0.01,RA,,0.11,WeatherDisplay:10.37,2013-01-11 17:10:00,
2013-01-11 18:20:00,50.2,44.0,29.81,SW,224,3.0,13.0,79,0.01,RA,,0.12,WeatherDisplay:10.37,2013-01-11 17:20:00,
2013-01-11 18:30:00,48.4,42.8,29.82,SW,236,3.0,15.0,81,0.09,RA,,0.21,WeatherDisplay:10.37,2013-01-11 17:30:00,
2013-01-11 18:40:00,47.5,43.5,29.82,WSW,239,3.0,8.0,86,0.02,RA,,0.23,WeatherDisplay:10.37,2013-01-11 17:40:00,
2013-01-11 18:50:00,47.9,43.9,29.81,SW,226,2.0,10.0,86,0.00,CLR,,0.23,WeatherDisplay:10.37,2013-01-11 17:50:00,
2013-01-11 19:00:00,48.1,44.1,29.81,SW,233,3.0,12.0,86,0.00,CLR,,0.23,WeatherDisplay:10.37,2013-01-11 18:00:00,
2013-01-11 19:10:00,48.2,44.2,29.81,WSW,248,3.0,7.0,86,0.00,CLR,,0.23,WeatherDisplay:10.37,2013-01-11 18:10:00,
2013-01-11 19:20:00,49.5,43.5,29.80,WSW,244,3.0,12.0,80,0.00,CLR,,0.23,WeatherDisplay:10.37,2013-01-11 18:20:00,
2013-01-11 19:30:00,50.4,44.1,29.80,SW,235,1.0,10.0,79,0.00,CLR,,0.23,WeatherDisplay:10.37,2013-01-11 18:30:00,
2013-01-11 19:40:00,50.5,44.2,29.80,WSW,242,1.0,8.0,79,0.00,CLR,,0.23,WeatherDisplay:10.37,2013-01-11 18:40:00,
2013-01-11 19:50:00,50.8,44.5,29.80,WSW,237,5.0,12.0,79,0.00,CLR,,0.23,WeatherDisplay:10.37,2013-01-11 18:50:00,
2013-01-11 20:00:00,51.0,44.7,29.80,WSW,252,6.0,12.0,79,0.00,CLR,,0.23,WeatherDisplay:10.37,2013-01-11 19:00:00,
2013-01-11 20:10:00,51.0,45.0,29.80,WNW,287,3.0,7.0,80,0.00,CLR,,0.23,WeatherDisplay:10.37,2013-01-11 19:10:00,
2013-01-11 20:20:00,50.3,44.7,29.80,West,270,3.0,7.0,81,0.00,CLR,,0.23,WeatherDisplay:10.37,2013-01-11 19:20:00,
2013-01-11 20:30:00,50.3,44.7,29.80,WSW,253,2.0,8.0,81,0.00,CLR,,0.23,WeatherDisplay:10.37,2013-01-11 19:30:00,
2013-01-11 20:40:00,50.3,44.7,29.80,WSW,252,5.0,8.0,81,0.00,CLR,,0.23,WeatherDisplay:10.37,2013-01-11 19:40:00,
2013-01-11 20:50:00,50.2,44.3,29.80,West,265,3.0,5.0,80,0.00,CLR,,0.23,WeatherDisplay:10.37,2013-01-11 19:50:00,
2013-01-11 21:00:00,50.0,43.7,29.80,West,260,3.0,6.0,79,0.00,CLR,,0.23,WeatherDisplay:10.37,2013-01-11 20:00:00,
2013-01-11 21:10:00,49.7,43.8,29.80,West,274,1.0,4.0,80,0.00,CLR,,0.23,WeatherDisplay:10.37,2013-01-11 20:10:00,
2013-01-11 21:20:00,49.6,44.0,29.80,West,276,0.0,3.0,81,0.00,CLR,,0.23,WeatherDisplay:10.37,2013-01-11 20:20:00,
2013-01-11 21:30:00,49.5,43.9,29.81,West,276,0.0,2.0,81,0.00,CLR,,0.23,WeatherDisplay:10.37,2013-01-11 20:30:00,
2013-01-11 21:40:00,49.6,44.0,29.82,West,265,0.0,5.0,81,0.00,CLR,,0.23,WeatherDisplay:10.37,2013-01-11 20:40:00,
2013-01-11 21:50:00,49.8,43.9,29.82,WSW,256,1.0,5.0,80,0.00,CLR,,0.23,WeatherDisplay:10.37,2013-01-11 20:50:00,
2013-01-11 22:00:00,49.9,44.0,29.82,West,274,2.0,4.0,80,0.00,CLR,,0.23,WeatherDisplay:10.37,2013-01-11 21:00:00,
2013-01-11 22:10:00,49.8,43.9,29.83,West,279,1.0,3.0,80,0.00,CLR,,0.23,WeatherDisplay:10.37,2013-01-11 21:10:00,
2013-01-11 22:20:00,49.7,43.5,29.83,West,271,0.0,6.0,79,0.00,CLR,,0.23,WeatherDisplay:10.37,2013-01-11 21:20:00,
2013-01-11 22:30:00,49.7,43.1,29.83,West,267,2.0,7.0,78,0.00,CLR,,0.23,WeatherDisplay:10.37,2013-01-11 21:30:00,
2013-01-11 22:40:00,49.6,42.7,29.84,West,267,2.0,7.0,77,0.00,CLR,,0.23,WeatherDisplay:10.37,2013-01-11 21:40:00,
2013-01-11 22:50:00,49.6,42.7,29.84,West,281,2.0,5.0,77,0.00,CLR,,0.23,WeatherDisplay:10.37,2013-01-11 21:50:00,
2013-01-11 23:00:00,49.6,42.0,29.84,West,281,2.0,5.0,75,0.00,CLR,,0.23,WeatherDisplay:10.37,2013-01-11 22:00:00,
2013-01-11 23:10:00,49.5,41.9,29.84,NW,315,1.0,5.0,75,0.00,CLR,,0.23,WeatherDisplay:10.37,2013-01-11 22:10:00,
2013-01-11 23:20:00,49.3,42.0,29.85,North,350,1.0,3.0,76,0.00,CLR,,0.23,WeatherDisplay:10.37,2013-01-11 22:20:00,
2013-01-11 23:30:00,49.0,41.4,29.85,WNW,298,1.0,3.0,75,0.00,CLR,,0.23,WeatherDisplay:10.37,2013-01-11 22:30:00,
2013-01-11 23:40:00,49.0,41.4,29.85,WNW,282,0.0,2.0,75,0.00,CLR,,0.23,WeatherDisplay:10.37,2013-01-11 22:40:00,
2013-01-11 23:50:00,48.8,41.6,29.86,WNW,287,1.0,3.0,76,0.00,CLR,,0.23,WeatherDisplay:10.37,2013-01-11 22:50:00,